www.pogodaiklimat.ru

Погода и климат >> Архив погоды >> Индонезия >> Денпасар


ПОГОДА в Денпасаре

  • Прогноз погоды в Денпасаре
  • Монитор погоды в Денпасаре

АРХИВ ПОГОДЫ в Денпасаре

Время (UTC), дата Ветер
(напр.,м/с)
 
Видим.   Явления Облачность Т
(С)
Тd
(С)
f
(%)
Тe
(С)
Тes
(С)
Комфортность P
(гПа)
Po
(гПа)
Тmin
(С)
Tmax
(С)
R
(мм)
R24
(мм)
S
(см)
00 17.01 СЗ 4 10 км 6/4 500 м
[Cu med, cong Ac trans Ci sp]
+28.4 +24.7 80 +40 +42 очень
душно
1007.8 1007.4 +24.4 5
03 17.01 З 8 10 км 9/3 500 м
[Cu med, cong Ac trans Cc]
+30.1 +24.4 72 +42 +44 опасность
перегрева
1008.5 1008.1
06 17.01 З 6 10 км {дождь} 9/3 500 м
[Cu med, cong Ac trans Ci sp]
+29.9 +24.9 75 +43 +46 опасность
перегрева
1006.8 1006.5 1
09 17.01 З 6 10 км в посл. час дождь 10/3 480 м
[Cu med, cong As op Ci sp]
+28.0 +24.9 83 +40 +40 очень
душно
1006.5 1006.0 0.0
12 17.01 СВ 2 10 км {дождь} 10/1 540 м
[Cu med, cong As op Cs]
+26.8 +24.7 88 +38 +38 очень
душно
1008.1 1007.6 +30.8 0.0
18 17.01 СЗ 2 10 км 10/3 540 м
[Cu med, cong Ac trans Cs]
+26.5 +24.2 87 +37 +37 очень
душно
1007.5 1006.9
00 18.01 СВ 3 10 км 10/1 540 м
[Cu med, cong Ac trans Cs]
+26.9 +24.0 84 +37 +39 очень
душно
1007.8 1007.3 +25.2 1
06 18.01 З 3 10 км 8/3 500 м
[Cu med, cong Ac trans Ci fib]
+29.6 +25.1 77 +43 +50 опасность
перегрева
1007.1 1006.5
09 18.01 З 4 10 км 9/3 500 м
[Cu med, cong Ac trans Cs]
+30.0 +24.3 72 +42 +43 опасность
перегрева
1005.4 1005.0
12 18.01 ЮЗ 1 10 км 9/3 500 м
[Cu med, cong Ac trans Cs]
+28.7 +24.8 79 +41 +41 опасность
перегрева
1007.8 1007.4 +31.0
15 18.01 ЮЗ 2 10 км 9/6 480 м
[Cu Sc Ac trans Ci fib]
+28.5 +25.2 82 +41 +41 опасность
перегрева
1009.2 1008.7
18 18.01 С 2 10 км 8/4 500 м
[Cu med, cong Ac trans Ci fib]
+27.4 +24.1 82 +38 +38 очень
душно
1007.5 1007.0
21 18.01 СВ 1 10 км 8/4 500 м
[Cu med, cong Ac trans Ci fib]
+26.8 +25.2 91 +39 +39 очень
душно
1007.8 1007.3
00 19.01 ЮВ 1 10 км 10/5 500 м
[Cu med, cong Ac As Cs]
+28.1 +25.0 83 +40 +42 очень
душно
1008.8 1008.5 +26.4
03 19.01 З 3 10 км 6/3 500 м
[Cu med, cong Ac trans Ci sp]
+30.0 +24.1 71 +42 +50 опасность
перегрева
1009.5 1008.9
06 19.01 З 3 10 км 9/3 500 м
[Cu med, cong Ac As Ci sp]
+30.1 +25.5 76 +44 +50 опасность
перегрева
1007.8 1007.3
09 19.01 З 2 10 км 10/4 500 м
[Cu med, cong Ac As Ci fib]
+29.6 +25.2 77 +43 +44 опасность
перегрева
1006.1 1005.8
12 19.01 Ю 2 10 км 9/5 500 м
[Cu med, cong Ac trans Ci fib]
+28.8 +25.3 81 +42 +42 опасность
перегрева
1008.1 1007.8 +30.7
15 19.01 Ю 1 8000 м в посл. час дождь 9/4 480 м
[Cu med, cong Ac trans Ci fib]
+26.3 +24.3 89 +37 +37 очень
душно
1009.8 1009.3 6
18 19.01 С 2 10 км в посл. час гроза 9/6 480 м
[Cb cap Ac trans Ci fib]
+27.0 +26.5 97 +41 +41 опасность
перегрева
1008.3 1007.8 6
21 19.01 СЗ 5 8000 м в посл. час дождь {гроза} 9/3 500 м
[Cu med, cong As op Ci fib]
+24.9 +23.7 93 +34 +34 очень
душно
1008.0 1007.5 0.0
00 20.01 С 2 10 км {гроза, дождь} 9/1 500 м
[Cu med, cong As op Ci sp]
+26.6 +24.6 89 +38 +40 очень
душно
1009.0 1008.5 +24.1 6
03 20.01 З 5 10 км 8/1 500 м
[Cu hum Ci fib]
+29.7 +24.6 74 +42 +51 опасность
перегрева
1009.5 1008.9
06 20.01 З 4 10 км 6/3 500 м
[Cu med, cong Ac trans Ci fib]
+30.4 +25.1 73 +44 +50 опасность
перегрева
1007.8 1007.2
09 20.01 З 4 10 км 8/3 500 м
[Cu med, cong Ac trans Ci fib]
+30.2 +25.4 76 +44 +45 опасность
перегрева
1006.8 1006.2
12 20.01 ЮЗ 2 10 км 6/3 500 м
[Cu med, cong Ac trans Ci fib]
+28.1 +25.2 84 +41 +41 опасность
перегрева
1008.5 1008.2 +31.0
15 20.01 З 4 10 км 9/3 500 м
[Cu med, cong Ac trans Ci fib]
+28.2 +24.9 82 +40 +40 очень
душно
1009.8 1009.3
18 20.01 З 3 7000 м слаб. дождь 10/8 450 м
[Cb cap Ac trans Ci fib]
+25.8 +24.6 93 +36 +36 очень
душно
1008.5 1007.9 1
21 20.01 З 3 10 км 9/3 500 м
[Cu med, cong Ac trans Ci fib]
+26.3 +24.9 92 +38 +38 очень
душно
1007.8 1007.5 5
00 21.01 СЗ 5 10 км в посл. час дождь 8/4 300 м
[Cu med, cong Ac trans Ci fib]
+27.4 +25.2 88 +40 +41 очень
душно
1008.5 1008.0 +24.9 1
03 21.01 СЗ 6 8000 м в посл. час дождь 8/5 480 м
[Cu med, cong Ac trans Ci fib]
+28.1 +25.7 87 +42 +44 опасность
перегрева
1009.1 1008.9 2
06 21.01 З 5 8000 м слаб. дождь 10/6 480 м
[Cu med, cong Ac As Ci sp]
+27.8 +26.0 90 +42 +44 опасность
перегрева
1006.8 1006.5 2
09 21.01 З 8 1500 м слаб. ливневой дождь, в посл. час гроза 10/8 360 м
[Cb cap Ac As]
+27.0 +25.8 93 +40 +40 очень
душно
1006.4 1006.0 7
12 21.01 З 5 3000 м дождь {гроза} 10/5 450 м
[Cb cap Ac As]
+25.8 +25.1 96 +37 +37 очень
душно
1008.5 1007.9 +29.2 35
15 21.01 СЗ 7 7000 м слаб. дождь 10/6 450 м
[Cu med, cong Ac As Ci sp]
+26.0 +24.8 93 +37 +37 очень
душно
1007.1 1006.7 0.0
18 21.01 З 9 7000 м в посл. час дождь 9/5 450 м
[Cu med, cong Ac As Ci sp]
+26.5 +24.7 90 +38 +38 очень
душно
1008.1 1007.7 1
21 21.01 СЗ 7 7000 м слаб. дождь 10/6 450 м
[Cu med, cong Ac As Ci sp]
+26.0 +24.8 93 +37 +37 очень
душно
1007.1 1006.7 0.0
00 22.01 З 11 5000 м дождь 10/6 300 м
[Cu med, cong Ac As Ci sp]
+27.4 +24.5 84 +39 +39 очень
душно
1008.1 1007.7 +24.8 0.0
03 22.01 З 11 8000 м в посл. час дождь 10/5 480 м
[Cu med, cong As op Ci sp]
+28.9 +26.0 84 +43 +43 опасность
перегрева
1008.5 1008.0 0.7
06 22.01 З 10 8000 м {дождь} 9/5 500 м
[Cu med, cong As op Ci sp]
+29.9 +26.4 82 +46 +46 опасность
перегрева
1006.8 1006.3 0.4
09 22.01 З 8 8000 м 10/6 480 м
[Cu med, cong As op Ci sp]
+29.0 +25.1 80 +42 +42 опасность
перегрева
1006.1 1005.6
12 22.01 З 8 8000 м слаб. дождь 10/6 450 м
[Cb cap As op Ci sp]
+27.8 +25.3 86 +40 +40 очень
душно
1007.8 1007.4 +31.0 0.0
15 22.01 З 9 8000 м слаб. дождь 10/6 450 м
[Cb cap Ac As Ci sp]
+27.6 +24.7 84 +39 +39 очень
душно
1008.8 1008.5 0.0
18 22.01 З 8 8000 м слаб. дождь 10/6 450 м
[Cu Sc Ac As Ci sp]
+27.4 +24.7 85 +39 +39 очень
душно
1007.1 1006.7 0.0
21 22.01 СЗ 2 8000 м слаб. дождь {гроза} 10/6 450 м
[Cu Sc Ac As Ci sp]
+26.1 +25.2 95 +38 +38 очень
душно
1007.1 1006.7 1
00 23.01 З 4 8000 м слаб. дождь 10/5 300 м
[Cu Sc Ac As Ci sp]
+27.5 +24.4 83 +39 +39 очень
душно
1009.1 1008.7 +25.8 0.0
03 23.01 З 7 10 км {дождь} 10/3 500 м
[Cu med, cong Ac As Ci sp]
+29.4 +24.6 75 +42 +44 опасность
перегрева
1009.1 1008.8 0.0
06 23.01 З 7 10 км {дождь} 10/3 500 м
[Cu med, cong Ac As Ci sp]
+29.8 +23.9 71 +41 +43 опасность
перегрева
1007.8 1007.2 0.0
09 23.01 З 7 10 км 10/1 480 м
[Cu med, cong As op Cs]
+28.4 +25.5 84 +42 +42 опасность
перегрева
1007.0 1006.5
12 23.01 З 8 10 км {дождь} 10/6 480 м
[Sc diur, vesp As op Ci sp]
+28.0 +24.5 81 +39 +39 очень
душно
1008.0 1007.5 +30.5 0.0
15 23.01 З 12 10 км 9/5 480 м
[Cu med, cong As op Ci sp]
+27.9 +24.2 80 +39 +39 очень
душно
1009.5 1009.2
18 23.01 З 9 10 км 10/4 500 м
[Cu med, cong Ac trans Cs]
+27.8 +22.8 74 +37 +37 очень
душно
1007.5 1007.1

 

Местоположение метеостанции Денпасар (Индонезия): широта -8.75 долгота 115.16 высота над уровнем моря 1 м.

В архиве по умолчанию представлена погода в Денпасаре за последнюю неделю. Архивные данные за месяц целиком и за предыдущие месяцы, начиная с января 2011 года, Вы можете получить, выбрав интересующий диапазон дат из раскрывающегося списка и нажав кнопку "Ввод!".


*Определитесь, кто Вы:
робот инопланетянин человек

Внимание! Время в таблицах - всемирное. Для получения местного времени необходимо прибавить поправку, которая равна 8 ч.

Смотрите также архив погоды в соседних городах и на ближайших метеорологических станциях:

Погода в Матараме (Индонезия) (102 км)
Погода в Банюванги (Индонезия) (104 км)
Погода в Калиянджете (Индонезия) (231 км)
Погода в Сурабая Геданган (Индонезия) (233 км)
Погода в Сумбава-Бесаре (Индонезия) (249 км)
Погода в Аэропорту Джуанда (Индонезия) (306 км)
Погода в Сурабая Перак (Индонезия) (319 км)
Погода в Биме (Индонезия) (390 км)
Погода в Сангкапуре (Индонезия) (427 км)
Погода в Семаранге (Индонезия) (560 км)

Пояснения к столбцам:

Ветер - указаны скорость ветра в м/с - средняя за 10 мин, порывы в срок и между сроками (в фигурных скобках) и направление, откуда дует ветер: С - северный, СВ - северо-восточный, В - восточный, ЮВ - юго-восточный, Ю - южный, ЮЗ - юго-западный, З - западный, СЗ - северо-западный.
Видимость - горизонтальная дальность видимости в метрах или километрах. При видимости от 1 до 10 км при отсутствии осадков обычно наблюдается дымка, при ухудшении видимости до 1 км и менее - туман. В сухую погоду видимость может ухудшаться дымом, пылью или мглою.
Явления - указаны атмосферные явления, наблюдавшиеся в срок или в последний час перед сроком; фигурными скобками обозначены явления, наблюдавшиеся между сроками (за 1-3 часа до срока); квадратными скобками обозначены град или гололедные отложения с указанием их диаметра в мм.
Облачность - указаны через наклонную черту общая и нижняя облачность в баллах и высота нижней границы облаков в метрах; квадратными скобками обозначены формы облаков: Ci - перистые, Cs - перисто-слоистые, Cc - перисто-кучевые, Ac - высококучевые, As - высокослоистые, Sc - слоисто-кучевые, Ns - слоисто-дождевые, Cu - кучевые, Cb - кучево-дождевые. Подробнее классификацию облаков см. в Атласе облаков (PDF).
T - Температура воздуха - температура, измеренная на высоте 2 м над землей.
Td - Температура точки росы - температура, при понижении до которой содержащийся в воздухе водяной пар достигнет насыщения.
f - Относительная влажность воздуха - влажноcть воздуха, измеренная на высоте 2 м над землей.
Te - Эффективная температура - температура, которую ощущает одетый по сезону человек в тени. Характеристика душности погоды. При расчете учитывается влияние влажности воздуха и скорости ветра на теплоощущения человека.
Tes - Эффективная температура на солнце - температура, которую ощущает человек, с поправкой на солнечный нагрев. Характеристика знойности погоды. Зависит от высоты солнца над горизонтом, облачности и скорости ветра. Ночью, в пасмурную погоду, а также при ветре 12 м/с и более поправка равна нулю.
P - Атмосферное давление - приведенное к уровню моря атмосферное давление.
Po - Атмосферное давление - измеренное на уровне метеостанции атмосферное давление.
Tmin - Минимальная температура - минимум температуры воздуха на высоте 2 м над землей.
Tmax - Максимальная температура - максимум температуры воздуха на высоте 2 м над землей.
R - Количество осадков - Количество выпавших осадков за период времени, мм. При наведении курсора мыши на число - период времени, за который выпало указанное количество осадков.
R24 - Количество осадков - Количество выпавших осадков за 24 часа, мм.
S - Снежный покров - Высота снежного покрова, см. При наведении курсора мыши на число - состояние снежного покрова и степень покрытия местности в баллах.